Location: ??????????
(48.5701°N, 37.7703°E)
Time: 10:15:16
(UTC+00:00)

Cosmos 1697 Rocket - Pass Details

Date: 14 July 2020
Orbit: 834 x 842 km, 71.0° (Epoch: 10 August)

Event Time Altitude Azimuth Distance (km) Brightness Sun altitude
Rises 00:27:04 0° 325° (NW) 3,397 6.0 -10.0°
Reaches altitude 10° 00:29:45 10° 315° (NW) 2,457 5.2 -9.7°
Maximum altitude 00:34:37 31° 255° (WSW) 1,427 3.5 -9.1°
Drops below altitude 10° 00:39:28 10° 195° (SSW) 2,438 4.6 -8.6°
Enters shadow 00:40:51 - 189° (S) 2,914 5.0 -8.5°
